SCP
0 0 0 0 1 1 1 2 2 3 2 2 1 1 2 2 1 1 1 1 1 1 1 1 2 2 2 2 1 1 1 0 0 0 0 0 0 0 0 0 0 0 0
0 0 0 0 0 1 1 2 2 3 2 2 2 2 2 2 1 1 1 1 1 1 1 1 1 2 2 2 1 1 1 0 0 0 0 0 0 0 0 0 0 0 0
0 0 0 0 0 1 1 2 2 3 3 2 2 2 2 2 1 1 1 1 1 1 1 1 1 1 1 2 2 1 1 0 0 0 0 0 0 0 0 0 0 0 0
0 0 0 0 0 1 1 2 2 3 3 3 2 2 2 1 1 2 2 2 1 1 1 1 0 1 1 1 1 1 1 0 0 0 0 0 0 0 0 0 0 0 0
0 0 0 0 1 1 1 2 2 3 3 3 3 2 2 1 1 2 2 1 1 1 1 1 0 0 0 1 1 1 1 1 0 0 0 0 0 0 0 0 0 0 0
0 0 0 0 1 1 1 2 2 2 3 3 3 2 2 1 1 1 1 1 1 1 1 1 0 0 0 0 0 1 1 1 1 0 0 0 0 0 0 0 0 0 0
0 0 0 0 0 0 1 1 1 1 2 2 2 2 1 1 1 1 1 1 1 1 1 0 0 0 0 0 0 0 1 1 1 0 0 0 0 0 0 0 0 0 0
0 0 0 0 0 0 0 1 1 1 2 2 2 2 1 1 1 1 1 1 1 1 1 0 0 0 0 0 0 0 0 1 1 0 0 0 0 0 0 0 0 0 0
0 0 0 0 0 0 0 0 1 1 1 1 2 2 2 1 1 1 1 1 1 1 1 1 1 0 0 0 0 0 0 0 0 0 0 1 0 0 0 0 0 0 0
0 0 0 0 0 0 0 0 0 1 1 1 2 2 2 1 1 1 1 1 1 1 1 1 1 0 0 0 0 0 0 0 0 0 0 1 1 1 0 0 0 0 0
0 0 0 0 0 0 0 0 0 0 1 1 1 2 2 1 1 1 1 1 1 1 1 1 1 0 0 0 0 0 0 0 0 0 0 0 0 0 0 0 0 0 0
0 0 0 0 0 0 0 0 0 1 1 1 1 1 1 1 1 1 1 1 1 1 0 1 0 0 0 0 0 0 0 0 0 0 0 0 0 0 0 0 0 0 0
0 0 0 0 0 0 0 0 0 1 1 1 1 1 1 1 1 1 1 1 1 0 0 0 0 0 0 0 0 0 0 0 0 0 0 0 0 0 0 0 0 0 0
0 0 0 0 0 0 0 0 0 1 1 1 1 1 1 1 1 1 1 1 0 0 0 0 0 0 0 0 0 0 0 0 0 0 0 0 0 0 0 0 0 0 0
0 0 0 0 0 0 0 1 1 0 1 1 1 1 1 0 1 1 1 1 1 0 0 0 0 0 0 0 0 0 0 0 0 0 0 0 0 0 0 0 0 0 0
0 0 0 0 0 0 1 1 1 0 0 0 0 0 0 0 0 0 1 1 0 0 0 0 0 0 0 0 0 0 0 0 0 0 0 0 0 0 0 0 0 0 0
0 0 0 0 0 0 0 0 0 0 0 0 0 0 0 0 0 0 0 0 0 0 0 0 0 0 0 0 0 0 0 0 0 0 0 0 0 0 0 0 0 0 0
0 0 0 0 0 0 0 0 0 0 0 0 0 0 0 0 0 0 0 0 0 0 0 0 0 0 0 0 0 0 0 0 0 0 0 0 0 0 0 0 0 0 0
0 0 0 0 0 0 0 0 0 0 0 0 0 0 0 0 0 0 0 0 0 0 0 0 0 0 0 0 0 0 0 0 0 0 0 0 0 0 0 0 0 0 0
0 0 0 0 0 0 0 0 0 0 0 0 0 0 0 0 0 0 0 0 0 0 0 0 0 0 0 0 0 0 0 0 0 0 0 0 0 0 0 0 0 0 0
0 0 0 0 0 0 0 0 0 0 0 0 0 0 0 0 0 0 0 0 0 0 0 0 0 0 0 0 0 0 0 0 0 0 0 0 0 0 0 0 0 0 0
0 0 0 0 0 0 0 0 0 0 0 0 0 0 0 0 0 0 0 0 0 0 0 0 0 0 0 0 0 0 0 0 0 0 0 0 0 0 0 0 0 0 0
0 0 0 0 0 0 0 0 0 0 0 0 0 0 0 0 0 0 0 0 0 0 0 0 0 0 0 0 0 0 0 0 0 0 0 0 0 0 0 0 0 0 0
0 0 0 0 0 0 0 0 0 0 0 0 0 0 0 0 0 0 0 0 0 0 0 0 0 0 0 0 0 0 0 0 0 0 0 0 0 0 0 0 0 0 0
0 0 0 0 0 0 0 0 0 0 0 0 0 0 0 0 0 0 0 0 0 0 0 0 0 0 0 0 0 0 0 0 0 0 0 0 0 0 0 0 0 0 0
0 0 0 0 0 0 0 0 0 0 0 0 0 0 0 0 0 0 0 0 0 0 0 0 0 0 0 0 0 0 0 0 0 0 0 0 0 0 0 0 0 0 0
Wind_Speed
5 2 2 1 1 2 2 4 4 3 3 2 2 3 3 3 3 4 5 6 7 7 6 5 6 6 6 6 6 4 3 2 2 1 1 2 2 2 2 2 2 2 3
3 2 1 0 0 2 3 3 4 4 4 4 3 3 4 3 3 3 5 6 7 7 7 7 6 6 5 6 6 4 3 2 3 3 1 1 2 2 2 2 3 3 2
2 1 1 0 0 1 2 3 3 3 4 3 2 1 0 1 2 3 3 5 6 7 7 8 7 6 6 6 7 6 6 4 3 3 3 3 4 2 2 3 3 2 2
0 0 1 1 2 2 2 2 3 3 3 3 3 4 4 4 4 3 4 4 6 6 6 7 7 6 6 6 6 6 5 5 4 2 2 2 3 2 2 2 2 3 4
1 2 2 2 2 2 1 2 2 3 3 3 4 4 4 3 2 2 4 4 5 6 6 6 6 6 5 6 6 6 5 5 5 4 2 1 1 1 2 3 3 2 3
1 2 3 2 3 3 2 2 2 3 3 3 4 4 4 4 3 3 4 4 4 4 6 6 6 6 5 6 6 6 7 6 5 4 4 3 3 3 3 3 3 3 3
2 2 3 3 3 3 3 3 3 3 3 3 4 4 5 5 5 5 5 4 4 4 6 6 6 6 6 6 5 6 6 7 7 6 5 4 4 3 3 2 2 3 3
2 3 3 3 3 3 3 3 3 4 4 3 4 3 4 3 3 4 4 4 4 4 5 6 6 6 6 6 5 5 5 5 6 6 6 4 4 3 3 3 2 2 3
3 3 4 3 3 4 4 3 3 4 4 3 3 3 3 3 4 4 3 3 3 3 5 5 5 6 6 6 6 5 5 5 6 6 6 5 4 4 3 3 4 4 3
3 4 4 3 4 4 3 3 3 4 4 3 3 3 3 3 3 3 3 3 3 3 3 4 5 5 5 5 5 5 5 6 6 5 6 6 4 4 3 3 3 3 4
4 4 4 4 4 4 3 3 3 3 3 3 3 3 3 3 3 2 3 3 3 3 4 4 5 5 5 5 5 5 5 7 6 6 7 7 5 4 4 3 3 3 3
4 4 4 4 3 3 3 3 2 2 3 3 2 2 3 3 2 2 3 2 3 3 3 4 4 5 5 5 6 6 6 7 8 7 7 7 5 6 5 4 4 4 4
4 4 3 4 4 3 3 3 3 3 3 2 2 2 2 2 2 2 2 2 2 2 2 3 4 4 5 5 6 6 7 7 8 7 8 7 7 7 5 5 5 4 4
4 4 4 4 4 3 3 3 3 2 2 2 2 2 2 2 2 2 2 2 2 2 3 3 4 4 4 5 5 6 7 7 7 7 7 8 8 8 7 6 6 5 4
5 5 5 5 4 4 3 3 2 2 2 1 1 2 2 1 1 1 1 1 1 1 2 2 2 3 3 4 4 5 6 7 6 6 6 7 8 9 8 6 6 6 4
7 6 5 5 4 4 4 3 2 2 1 1 1 2 2 1 1 1 1 1 1 1 1 2 2 3 3 5 7 6 5 5 6 6 5 6 7 9 10 10 9 8 6
6 6 5 5 4 4 3 3 2 1 1 1 2 2 1 1 1 2 1 1 1 1 2 2 2 3 4 6 7 7 4 5 5 6 5 4 5 7 6 7 8 8 9
6 6 5 5 5 4 3 3 2 1 1 1 2 2 1 2 2 1 2 2 1 1 2 2 3 3 4 6 7 7 4 4 4 5 5 5 5 6 6 5 4 4 4
5 5 4 4 4 3 3 3 3 2 2 2 2 2 2 2 2 2 2 2 1 2 2 3 3 3 4 6 7 6 2 3 4 4 4 5 5 7 7 5 4 3 2
5 4 4 4 4 4 3 2 3 2 2 2 3 3 2 2 2 2 2 2 2 2 2 3 3 3 4 6 6 6 2 3 2 2 3 6 6 7 7 5 5 4 3
5 4 4 4 4 4 2 2 2 3 3 3 3 3 2 2 2 2 2 2 1 2 2 3 3 3 4 6 6 5 2 3 2 2 2 3 7 7 7 6 4 5 3
5 4 4 4 4 4 3 2 3 3 3 3 3 3 3 3 2 2 2 2 1 1 2 2 3 3 3 4 5 5 4 3 2 2 2 3 6 6 5 4 4 4 3
4 4 4 4 5 4 3 2 4 3 3 2 3 3 3 3 3 2 2 2 1 1 2 2 2 2 2 3 4 5 4 3 2 1 3 3 3 3 3 4 4 3 2
4 4 4 4 5 5 4 3 4 3 2 3 3 3 2 2 2 2 2 2 2 2 2 2 2 2 2 2 2 2 2 2 1 1 1 1 2 1 2 3 2 1 2
3 3 3 4 5 5 5 5 4 3 2 3 3 3 2 2 2 2 2 3 3 3 3 3 3 2 2 4 4 2 1 1 1 1 1 1 1 1 1 1 1 1 1
3 3 4 4 5 5 5 5 4 3 2 3 3 2 2 2 2 2 3 4 4 5 5 5 4 3 4 4 4 3 3 2 1 2 1 1 1 1 1 1 1 1 1
Wind_Direction
257 249 236 230 201 191 194 195 193 201 189 184 194 197 209 226 219 208 208 205 197 192 188 187 187 187 188 189 185 176 178 177 146 102 349 319 292 248 227 214 206 218 225
286 299 292 302 223 213 209 209 204 198 198 202 203 207 206 213 223 221 213 209 201 195 193 190 191 192 191 189 189 175 172 186 169 145 128 292 304 287 250 227 215 214 215
228 264 347 345 328 258 232 230 226 215 210 210 199 206 215 235 226 230 224 220 208 200 196 195 192 193 193 197 196 189 181 188 201 182 163 172 220 272 277 246 229 216 222
314 300 329 317 287 258 258 260 242 229 221 205 196 195 208 222 231 223 225 227 212 205 199 196 194 194 197 201 203 196 191 178 194 215 213 188 166 175 263 286 260 242 234
275 297 287 278 286 276 263 266 268 253 235 218 210 205 222 232 238 229 226 222 218 210 203 199 194 195 199 201 202 201 196 191 193 193 190 191 206 189 187 251 274 277 251
319 317 314 315 322 329 312 289 282 269 252 233 222 212 218 230 230 233 227 223 219 215 208 202 196 198 201 203 203 205 203 202 199 198 193 185 185 196 193 224 256 267 270
327 322 324 323 320 327 322 308 289 280 267 246 236 228 224 220 220 224 222 220 221 222 211 204 202 204 207 205 204 205 209 206 202 204 208 206 207 189 188 202 240 267 278
339 331 319 311 308 304 300 297 290 284 278 260 253 247 236 228 233 230 222 223 223 222 215 209 206 208 207 207 204 208 213 210 208 210 209 210 211 201 196 194 192 261 278
327 321 316 309 301 293 281 271 274 282 278 265 262 252 241 231 237 235 223 223 231 228 215 214 211 210 208 208 206 210 212 210 212 210 209 213 215 209 211 202 193 198 243
316 312 311 305 299 289 284 273 258 269 272 258 248 257 254 247 244 229 223 227 226 220 218 218 214 214 213 213 212 212 212 212 215 208 207 212 212 209 208 207 212 211 216
300 301 305 304 301 302 300 289 282 280 277 266 258 264 266 265 249 230 231 227 225 218 218 224 218 216 217 215 209 211 210 212 214 212 210 214 206 205 210 206 208 216 212
297 295 300 307 310 310 316 308 295 278 270 262 258 259 264 265 252 248 242 228 225 219 223 225 220 221 220 217 211 212 212 211 213 214 211 213 207 210 209 206 213 219 217
313 315 320 319 316 314 310 303 292 277 273 264 259 266 268 263 262 259 248 226 223 225 229 233 232 231 228 225 220 214 214 215 216 212 211 211 206 213 212 211 216 220 221
312 321 322 319 317 317 310 305 303 292 285 274 262 269 272 263 264 265 255 237 224 226 235 236 241 241 239 234 223 218 216 216 217 215 213 211 210 212 210 214 216 215 214
321 321 320 319 319 324 325 323 322 321 310 304 292 280 280 283 291 294 285 264 246 256 250 251 254 249 243 237 229 219 215 213 214 217 219 218 219 221 218 217 213 207 212
318 321 324 324 322 323 324 325 324 326 329 322 308 309 311 307 300 296 289 278 279 276 274 270 265 258 256 255 252 238 215 213 211 216 221 225 223 224 227 230 227 217 213
314 318 320 319 313 311 313 311 311 322 320 303 301 314 315 313 312 306 303 292 286 284 289 290 285 273 266 264 264 260 240 219 216 214 214 223 227 222 215 223 227 230 232
317 316 316 317 317 319 322 322 331 340 326 310 306 310 308 307 311 300 297 296 276 276 289 288 285 284 280 279 275 269 252 230 220 217 211 212 218 216 209 204 215 227 231
310 308 310 313 321 326 329 350 1 356 349 335 324 317 305 298 297 292 294 286 284 295 297 293 291 288 289 287 284 282 245 226 225 222 216 212 210 218 211 196 197 213 227
324 324 327 334 339 332 345 15 357 353 336 322 314 311 302 291 287 288 290 288 282 290 297 301 298 291 290 293 291 292 244 222 225 225 220 224 220 216 216 197 188 200 212
327 334 338 341 335 336 1 9 349 329 317 320 319 321 319 303 292 297 294 287 293 300 298 297 299 296 295 298 296 292 265 223 218 225 227 222 223 222 221 214 199 199 188
336 341 343 335 336 343 358 353 325 313 319 321 323 324 321 312 311 307 304 301 295 296 297 297 302 301 296 302 294 294 283 266 227 223 225 225 232 222 213 209 184 170 161
333 339 340 334 336 341 345 329 310 311 314 320 319 315 314 313 308 301 303 302 288 273 280 280 287 304 313 307 304 302 293 284 273 237 230 232 227 202 171 162 158 151 148
328 334 339 337 332 335 332 311 309 318 323 321 313 305 308 313 314 303 290 272 264 262 270 270 273 283 300 303 297 292 283 286 283 240 184 147 115 104 129 141 140 147 169
323 329 332 326 323 327 330 328 323 322 322 315 308 311 311 305 307 302 288 279 262 256 259 256 256 256 266 282 296 290 274 256 226 144 108 104 110 115 110 101 105 113 128
320 325 325 322 319 322 324 325 326 321 316 315 314 311 307 300 295 299 309 306 290 293 286 280 275 272 274 289 292 289 285 275 191 133 136 144 141 155 147 145 136 134 157